Погода в Тереньге

Россия / Ульяновская область     53°42′58″N   48°21′59″E
темп.,
°C
ветер,
м/с
пор.,
м/с
влажн.,
%
обл.,
%
осадки,
мм/ч
давл.,
гПа
погр.,
м
21 апреля, ср
ср2101:00+5юв91646100 0.0 1023780
04:00+4юв101947100 0.0 1022797
07:00+2юв91978100 1.3 1022688
10:00+2юв102071100 1.4 1022822
13:00+3юв91873100 0.0 1021793
16:00+2ююв81788100 0.6 1022715
19:00+2ююв81695100 1.1 1021688
22:00+3ююв71597100 1.1 1022624
22 апреля, чт
чт2201:00+3ю61298100 0.1 1022482
04:00+3ююв4998100 0.1 1023315
07:00+4ююв4898100 0.0 1024326
10:00+6ююв5894100 0.0 1024357
13:00+10ю577569 0.0 1024755
16:00+11ююв6765100 0.0 10241160
19:00+9юв61076100 0.0 1024558
22:00+7ююв598199 0.0 1025401
23 апреля, пт
пт2301:00+5ююв489199 0.2 1025266
04:00+5ююв369390 0.3 1025201
07:00+5юв359193 0.0 1026210
10:00+6юв458398 0.0 1026333
13:00+11юв3363100 0.0 1024720
16:00+13вюв545996 0.0 10231263
19:00+11в3670100 0.0 1022456
22:00+7в3684100 0.0 1021137
24 апреля, сб
сб2401:00+7всв3687100 0.0 1019131
04:00+6св2291100 0.0 101745
07:00+6всв2488100 0.0 1016160
10:00+9юв3373100 0.0 1015712
13:00+11ююв3365100 0.1 10141060
16:00+11юв2363100 0.2 1012639
19:00+10юв4877100 0.0 1012344
22:00+9юв4108394 0.1 1011347
25 апреля, вс
вс2501:00+9зюз61086100 0.9 1010591
04:00+5з611825 1.4 1011628
07:00+4зюз411805 0.0 1013605
10:00+9юз57586 0.0 10131322
13:00+9юз6855100 0.3 10131484
16:00+5з3591100 4.9 1013584
19:00+4сз249167 0.1 1014410
22:00+3юз259347 0.1 1015139